 ,,�O�C���x [��],����1,�O�C���x [��],����2,���ԉ��x [��],����3,���Ԏ��x [��],����4,�m��(��󒲎�)���x [��],����5,���� [��],����6,�R����[��],����7
2004/12/1,0:00,6.5,0,52.2,0,21.2,0,39.8,0,17.9,0,13.2,0,19.5,0
2004/12/1,0:15,6.4,0,51,0,21.2,0,39.4,0,17.7,0,13.4,0,19.4,0
2004/12/1,0:30,6.3,0,52.6,0,21.1,0,39.4,0,17.6,0,13.5,0,19.4,0
2004/12/1,0:45,6.5,0,53.8,0,21.1,0,39.2,0,17.6,0,13.7,0,19.4,0
2004/12/1,1:00,6.5,0,52.9,0,21.1,0,38.8,0,17.5,0,13.8,0,19.4,0
2004/12/1,1:15,6.6,0,53.8,0,21.2,0,38.4,0,17.4,0,13.9,0,19.4,0
2004/12/1,1:30,6.6,0,53.6,0,21.2,0,38.5,0,17.4,0,14.1,0,19.4,0
2004/12/1,1:45,6.7,0,51.4,0,21.2,0,38.1,0,17.3,0,14.2,0,19.5,0
2004/12/1,2:00,6.7,0,50.7,0,21.3,0,37.8,0,17.3,0,14.3,0,19.5,0
2004/12/1,2:15,6.6,0,50.2,0,21.4,0,37.8,0,17.2,0,14.4,0,19.5,0
2004/12/1,2:30,6.6,0,50.7,0,21.4,0,37.3,0,17.2,0,14.6,0,19.6,0
2004/12/1,2:45,6.6,0,52.3,0,21.5,0,37.3,0,17.2,0,14.7,0,19.7,0
2004/12/1,3:00,6.6,0,50,0,21.6,0,37.1,0,17.2,0,14.8,0,19.8,0
2004/12/1,3:15,6.6,0,49.1,0,21.7,0,37.1,0,17.1,0,14.9,0,19.8,0
2004/12/1,3:30,6.6,0,52.4,0,21.8,0,36.8,0,17.1,0,15,0,19.9,0
2004/12/1,3:45,6.7,0,50.7,0,21.9,0,36.7,0,17.1,0,15.1,0,20,0
2004/12/1,4:00,6.8,0,46.6,0,22,0,36.4,0,17.1,0,15.3,0,20.1,0
2004/12/1,4:15,6.9,0,46.6,0,22,0,36.3,0,17.1,0,15.4,0,20.1,0
2004/12/1,4:30,6.9,0,48.5,0,22.1,0,36,0,17.1,0,15.5,0,20.2,0
2004/12/1,4:45,6.9,0,52.4,0,22.1,0,35.9,0,17,0,15.6,0,20.2,0
2004/12/1,5:00,7,0,50.8,0,22.2,0,35.6,0,17,0,15.7,0,20.2,0
2004/12/1,5:15,7,0,47.3,0,22.2,0,35.6,0,17,0,15.9,0,20.3,0
2004/12/1,5:30,6.8,0,50.7,0,22.3,0,35.4,0,17,0,16,0,20.3,0
2004/12/1,5:45,6.9,0,50.2,0,22.3,0,35.5,0,16.9,0,16,0,20.4,0
2004/12/1,6:00,6.8,0,50.6,0,22.4,0,35.8,0,16.9,0,16.1,0,20.5,0
2004/12/1,6:15,6.6,0,50.6,0,22.4,0,35.6,0,16.9,0,16.2,0,20.5,0
2004/12/1,6:30,6.6,0,49.9,0,22.4,0,36.2,0,16.9,0,16.3,0,20.6,0
2004/12/1,6:45,6.4,0,48.4,0,22.2,0,36.8,0,17.2,0,16.4,0,20.4,0
2004/12/1,7:00,6.5,0,48.9,0,22.1,0,37.2,0,17.3,0,12.9,0,20.9,0
2004/12/1,7:15,6.8,0,50.9,0,22.1,0,36.9,0,17.5,0,13,0,21.1,0
2004/12/1,7:30,7,0,50.6,0,22.1,0,38.9,0,17.7,0,13.1,0,21.1,0
2004/12/1,7:45,7.3,0,50.5,0,22.3,0,39.8,0,18,0,13.2,0,21.1,0
2004/12/1,8:00,7.7,0,49.2,0,22.5,0,39.7,0,18.6,0,12.4,0,21,0
2004/12/1,8:15,8.1,0,47.4,0,22.6,0,39.3,0,19.1,0,12.4,0,21,0
2004/12/1,8:30,8.6,0,46.1,0,22.9,0,38.6,0,19.5,0,12.5,0,21.1,0
2004/12/1,8:45,8.6,0,47.7,0,23.1,0,38.1,0,19.9,0,12.6,0,21.1,0
2004/12/1,9:00,8.3,0,46.8,0,23.3,0,37.8,0,20.3,0,12.7,0,21.3,0
2004/12/1,9:15,9.3,0,44,0,23.3,0,37.8,0,20.5,0,12.9,0,21.4,0
2004/12/1,9:30,9.7,0,42.6,0,23.7,0,37.1,0,20.9,0,13,0,21.5,0
2004/12/1,9:45,9.8,0,43.5,0,24.1,0,36.3,0,21.4,0,13.1,0,21.7,0
2004/12/1,10:00,9.9,0,44,0,24.5,0,35.7,0,22,0,13.3,0,22.1,0
2004/12/1,10:15,10.1,0,42.2,0,24.7,0,35.7,0,22.4,0,13.4,0,22.3,0
2004/12/1,10:30,10.3,0,43.5,0,24.7,0,36.2,0,22.7,0,13.6,0,22.5,0
2004/12/1,10:45,10.2,0,44.8,0,24.7,0,36.2,0,22.8,0,13.7,0,22.6,0
2004/12/1,11:00,10.4,0,46.2,0,24.9,0,35.8,0,23.1,0,13.9,0,22.8,0
2004/12/1,11:15,10.3,0,45.2,0,25.2,0,35.3,0,23.4,0,14,0,23,0
2004/12/1,11:30,10.4,0,44.5,0,25.4,0,35.4,0,23.8,0,14.1,0,23.2,0
2004/12/1,11:45,10.3,0,46.1,0,25.4,0,35.6,0,24,0,14.2,0,23.3,0
2004/12/1,12:00,10.7,0,45.2,0,25.7,0,35.2,0,24.3,0,14.3,0,23.5,0
2004/12/1,12:15,10.8,0,43.8,0,25.8,0,35.4,0,24.6,0,14.5,0,23.8,0
2004/12/1,12:30,10.4,0,45.8,0,25.9,0,35.4,0,24.8,0,14.6,0,23.9,0
2004/12/1,12:45,10,0,49.6,0,25.9,0,35.5,0,24.9,0,14.7,0,23.9,0
2004/12/1,13:00,9.8,0,48.6,0,25.9,0,35.4,0,24.9,0,14.8,0,24,0
2004/12/1,13:15,10.6,0,47.8,0,25.8,0,35.9,0,24.7,0,15,0,24,0
2004/12/1,13:30,10,0,48.9,0,25.8,0,35.8,0,24.6,0,15.1,0,23.9,0
2004/12/1,13:45,9.9,0,49.6,0,25.6,0,36,0,24.4,0,15.2,0,23.9,0
2004/12/1,14:00,9.8,0,48.5,0,25.5,0,35.7,0,24.2,0,15.3,0,23.9,0
2004/12/1,14:15,9.5,0,50,0,25.4,0,35.8,0,24.1,0,15.5,0,23.8,0
2004/12/1,14:30,9.6,0,50.7,0,25.3,0,35.8,0,23.9,0,15.6,0,23.8,0
2004/12/1,14:45,9.6,0,50.8,0,25.2,0,35.8,0,23.8,0,15.7,0,23.7,0
2004/12/1,15:00,9.6,0,49.6,0,25.2,0,35.6,0,23.7,0,15.9,0,23.7,0
2004/12/1,15:15,9.5,0,47,0,25.1,0,35.7,0,23.7,0,16,0,23.6,0
2004/12/1,15:30,9.5,0,47.7,0,25,0,35.7,0,23.6,0,16.1,0,23.6,0
2004/12/1,15:45,9.5,0,47,0,24.9,0,35.6,0,23.5,0,16.2,0,23.5,0
2004/12/1,16:00,9.5,0,47.4,0,24.7,0,31.2,0,23.4,0,16.3,0,23.4,0
2004/12/1,16:15,9.6,0,48.5,0,24.4,0,34,0,23.1,0,16.4,0,23.2,0
2004/12/1,16:30,9.8,0,49,0,24.2,0,34.2,0,22.8,0,16.5,0,22.9,0
2004/12/1,16:45,9.8,0,50.3,0,24,0,34.6,0,22.6,0,16.6,0,22.7,0
2004/12/1,17:00,9.3,0,59,0,23.9,0,34.7,0,22.4,0,16.7,0,22.6,0
2004/12/1,17:15,8.4,0,65.8,0,23.7,0,34.9,0,22.3,0,16.8,0,22.4,0
2004/12/1,17:30,8.7,0,65.2,0,23.6,0,35.3,0,22.1,0,16.9,0,22.3,0
2004/12/1,17:45,9,0,57.2,0,23.4,0,35.7,0,21.9,0,17,0,22.1,0
2004/12/1,18:00,9,0,52.3,0,23.3,0,35.8,0,21.8,0,17.1,0,22,0
2004/12/1,18:15,9,0,53.4,0,22.7,0,38.9,0,21.3,0,17.2,0,21.8,0
2004/12/1,18:30,9,0,55.9,0,23.4,0,38.7,0,21.4,0,17.3,0,21.9,0
2004/12/1,18:45,8.9,0,53.4,0,23.4,0,37.4,0,21.5,0,17.4,0,22.1,0
2004/12/1,19:00,8.9,0,57,0,23.5,0,36.3,0,21.4,0,17.5,0,22.6,0
2004/12/1,19:15,8.7,0,54.5,0,23.6,0,35.7,0,21.4,0,17.6,0,23,0
2004/12/1,19:30,8.5,0,55,0,23.6,0,35.3,0,21.3,0,17.7,0,23.8,0
2004/12/1,19:45,8.4,0,53.5,0,23.7,0,35.9,0,21.2,0,17.8,0,23.7,0
2004/12/1,20:00,8.3,0,54.4,0,23.7,0,37.1,0,21.2,0,17.8,0,23.8,0
2004/12/1,20:15,8.1,0,53.7,0,23.8,0,37.7,0,21.3,0,17.9,0,23.7,0
2004/12/1,20:30,8.1,0,55.4,0,23.9,0,37.4,0,21.3,0,14.9,0,23.9,0
2004/12/1,20:45,8,0,58.3,0,23.9,0,38.7,0,21.3,0,14.7,0,23.7,0
2004/12/1,21:00,7.6,0,55.3,0,24,0,39.7,0,21.1,0,14.7,0,23.6,0
2004/12/1,21:15,7.5,0,54.6,0,24,0,40.7,0,21,0,14.8,0,23.4,0
2004/12/1,21:30,7.6,0,56.7,0,24,0,41,0,21.1,0,14.8,0,23.4,0
2004/12/1,21:45,7.8,0,59.9,0,24,0,41.2,0,21.1,0,15,0,23.2,0
2004/12/1,22:00,7.7,0,57.4,0,24,0,40.4,0,21.1,0,15.1,0,23,0
2004/12/1,22:15,7.6,0,55.6,0,23.9,0,39.9,0,21,0,15.2,0,22.8,0
2004/12/1,22:30,7.6,0,50.2,0,24,0,42.7,0,21.1,0,15.4,0,22.8,0
2004/12/1,22:45,7.4,0,54.9,0,24,0,45.7,0,21.1,0,15.5,0,22.7,0
2004/12/1,23:00,7.3,0,58.5,0,24,0,46.9,0,21.1,0,15.7,0,22.6,0
2004/12/1,23:15,7.2,0,57.3,0,24,0,47.7,0,21.1,0,15.8,0,22.5,0
2004/12/1,23:30,7.1,0,56.7,0,24,0,49.5,0,21,0,15.9,0,22.5,0
2004/12/1,23:45,7,0,55.9,0,24,0,50.9,0,20.9,0,16.1,0,22.4,0
2004/12/2,0:00,7,0,55.4,0,24,0,51.5,0,20.8,0,16.2,0,22.4,0
2004/12/2,0:15,6.9,0,55.1,0,24,0,51.6,0,20.7,0,16.3,0,22.4,0
2004/12/2,0:30,6.7,0,53.2,0,24,0,51.5,0,20.5,0,16.4,0,22.3,0
2004/12/2,0:45,6.7,0,53.6,0,24,0,51.4,0,20.4,0,16.6,0,22.2,0
2004/12/2,1:00,6.6,0,53.4,0,23.9,0,51.4,0,20.3,0,16.7,0,22.1,0
2004/12/2,1:15,6.4,0,52.8,0,23.9,0,51.1,0,20.2,0,16.8,0,22.1,0
2004/12/2,1:30,6.4,0,52.5,0,23.9,0,50.8,0,20.1,0,16.9,0,22.1,0
2004/12/2,1:45,6.6,0,51,0,23.9,0,50.3,0,20,0,17,0,22,0
2004/12/2,2:00,6.8,0,50.8,0,23.9,0,50.8,0,19.9,0,17.1,0,22,0
2004/12/2,2:15,6.8,0,50.1,0,24,0,50.7,0,19.8,0,17.2,0,22,0
2004/12/2,2:30,6.7,0,51.9,0,24,0,50.4,0,19.7,0,17.3,0,22,0
2004/12/2,2:45,6.6,0,53,0,24,0,50.2,0,19.7,0,17.4,0,22,0
2004/12/2,3:00,6.6,0,54.1,0,24,0,50,0,19.7,0,17.5,0,22,0
2004/12/2,3:15,6.5,0,56.7,0,24.1,0,50.2,0,19.6,0,17.6,0,22.1,0
2004/12/2,3:30,6.5,0,56.7,0,24.1,0,49.5,0,19.6,0,17.7,0,22.1,0
2004/12/2,3:45,6.4,0,56.4,0,24.2,0,49.2,0,19.5,0,17.8,0,22.1,0
2004/12/2,4:00,6.5,0,52,0,24.2,0,48.7,0,19.5,0,17.8,0,22.2,0
2004/12/2,4:15,6.6,0,51,0,24.2,0,48.3,0,19.4,0,17.9,0,22.2,0
2004/12/2,4:30,6.4,0,56,0,24.2,0,47.7,0,19.4,0,18,0,22.2,0
2004/12/2,4:45,6.3,0,54.9,0,24.3,0,47.1,0,19.3,0,18.1,0,22.2,0
2004/12/2,5:00,6.2,0,52,0,24.3,0,46.5,0,19.3,0,18.1,0,22.2,0
2004/12/2,5:15,6.2,0,50.5,0,24.3,0,46.1,0,19.3,0,18.2,0,22.2,0
2004/12/2,5:30,6.2,0,51.2,0,24.3,0,45.8,0,19.2,0,18.3,0,22.3,0
2004/12/2,5:45,6.4,0,52.8,0,24.3,0,45.5,0,19.2,0,18.3,0,22.4,0
2004/12/2,6:00,6.1,0,54.8,0,24.3,0,45.5,0,19.2,0,18.4,0,22.4,0
2004/12/2,6:15,6,0,51.1,0,24.4,0,44.6,0,19.2,0,18.4,0,22.4,0
2004/12/2,6:30,5.9,0,48.7,0,24.4,0,44.3,0,19.1,0,18.5,0,22.4,0
2004/12/2,6:45,5.7,0,48.5,0,24.4,0,42.2,0,19.1,0,18.5,0,22.4,0
2004/12/2,7:00,5.8,0,51,0,24.4,0,41.6,0,19.1,0,13.6,0,23.3,0
2004/12/2,7:15,6,0,51.2,0,24.2,0,39.1,0,19.3,0,13.3,0,23.1,0
2004/12/2,7:30,5.8,0,54.7,0,24.2,0,41.9,0,19.4,0,12.7,0,22.9,0
2004/12/2,7:45,5.9,0,52.5,0,24.1,0,42.9,0,19.4,0,12.3,0,22.7,0
2004/12/2,8:00,6,0,53.6,0,24,0,41.9,0,19.6,0,12.3,0,22.4,0
2004/12/2,8:15,6.1,0,53.1,0,23.9,0,42.4,0,19.6,0,12.4,0,22.1,0
2004/12/2,8:30,6.4,0,48.5,0,23.8,0,42.1,0,19.7,0,12.6,0,21.9,0
2004/12/2,8:45,6.4,0,50.7,0,23.7,0,42,0,19.8,0,12.7,0,21.8,0
2004/12/2,9:00,6.4,0,52,0,23.7,0,41.9,0,19.9,0,12.9,0,21.7,0
2004/12/2,9:15,6.9,0,47.6,0,23.6,0,41.7,0,19.9,0,13,0,21.6,0
2004/12/2,9:30,6.8,0,49.5,0,23.5,0,41.5,0,20,0,13.2,0,21.5,0
2004/12/2,9:45,7.9,0,46.6,0,23.6,0,41.2,0,20.1,0,13.3,0,21.5,0
2004/12/2,10:00,7.6,0,46.2,0,23.6,0,40.9,0,20.4,0,13.5,0,21.6,0
2004/12/2,10:15,7.7,0,47.6,0,23.6,0,40.7,0,20.4,0,13.7,0,21.6,0
2004/12/2,10:30,7.2,0,47.4,0,23.6,0,40.4,0,20.5,0,13.8,0,21.6,0
2004/12/2,10:45,8.2,0,42.5,0,23.6,0,40.3,0,20.5,0,13.9,0,21.6,0
2004/12/2,11:00,8.1,0,43.9,0,23.7,0,40,0,20.7,0,14.1,0,21.6,0
2004/12/2,11:15,8,0,45.2,0,23.9,0,39.8,0,21.1,0,14.2,0,21.8,0
2004/12/2,11:30,7.6,0,47.2,0,23.9,0,39.6,0,21.2,0,14.4,0,21.8,0
2004/12/2,11:45,7.4,0,48.6,0,23.9,0,39.5,0,21.3,0,14.5,0,21.9,0
2004/12/2,12:00,7.2,0,50.7,0,23.9,0,39.4,0,21.3,0,14.7,0,21.9,0
2004/12/2,12:15,7.9,0,51,0,23.9,0,39.4,0,21.2,0,14.8,0,21.9,0
2004/12/2,12:30,7.4,0,51.7,0,23.8,0,39.3,0,21.2,0,14.9,0,21.8,0
2004/12/2,12:45,7.2,0,53.5,0,23.8,0,39.2,0,21.1,0,15,0,21.8,0
2004/12/2,13:00,7,0,55.9,0,23.7,0,39.2,0,21.1,0,15.2,0,21.7,0
2004/12/2,13:15,7.2,0,58.2,0,23.6,0,39,0,21,0,15.3,0,21.7,0
2004/12/2,13:30,8.2,0,51.3,0,23.6,0,38.9,0,20.9,0,15.5,0,21.6,0
2004/12/2,13:45,8.7,0,47.2,0,23.7,0,38.6,0,21.2,0,15.6,0,21.6,0
2004/12/2,14:00,8.3,0,48.4,0,23.8,0,38.4,0,21.6,0,15.7,0,21.8,0
2004/12/2,14:15,8.6,0,46.6,0,23.9,0,38.3,0,21.9,0,15.9,0,21.9,0
2004/12/2,14:30,8.5,0,49.8,0,24,0,38.2,0,22,0,16,0,21.9,0
2004/12/2,14:45,7.3,0,54.8,0,23.9,0,38.1,0,21.9,0,16.1,0,21.9,0
2004/12/2,15:00,7,0,53.9,0,23.9,0,38.2,0,21.7,0,16.2,0,21.9,0
2004/12/2,15:15,6.8,0,53.3,0,23.8,0,38.1,0,21.6,0,16.3,0,21.9,0
2004/12/2,15:30,6.6,0,49.9,0,23.7,0,38.2,0,21.4,0,16.5,0,21.8,0
2004/12/2,15:45,6.6,0,52.6,0,23.7,0,37.9,0,21.3,0,16.6,0,21.8,0
2004/12/2,16:00,6.8,0,53.7,0,23.6,0,37.8,0,21.1,0,16.7,0,21.7,0
2004/12/2,16:15,6.8,0,54.2,0,23.4,0,35.9,0,21,0,16.8,0,21.7,0
2004/12/2,16:30,6.9,0,53.1,0,23.4,0,37.3,0,20.9,0,13.4,0,21.6,0
2004/12/2,16:45,6.9,0,54.6,0,23.3,0,37.4,0,20.8,0,13.4,0,21.5,0
2004/12/2,17:00,7,0,55.2,0,23.2,0,37.6,0,20.7,0,13.5,0,21.4,0
2004/12/2,17:15,6.9,0,55.2,0,23.2,0,37.6,0,20.6,0,13.6,0,21.4,0
2004/12/2,17:30,6.9,0,54.5,0,23.1,0,37.7,0,20.5,0,13.8,0,21.3,0
2004/12/2,17:45,7,0,55.1,0,23.1,0,37.8,0,20.5,0,13.9,0,21.3,0
2004/12/2,18:00,7.1,0,54.8,0,23.1,0,37.7,0,20.5,0,14,0,21.3,0
2004/12/2,18:15,6.9,0,54.6,0,23.1,0,37.8,0,20.5,0,14.2,0,21.3,0
2004/12/2,18:30,6.8,0,56,0,23.1,0,37.8,0,20.5,0,14.3,0,21.3,0
2004/12/2,18:45,6.8,0,53,0,23.1,0,37.9,0,20.5,0,14.4,0,21.3,0
2004/12/2,19:00,6.9,0,55.9,0,23.1,0,36.1,0,20.5,0,14.6,0,21.3,0
2004/12/2,19:15,7.1,0,55.6,0,23.2,0,36.4,0,20.4,0,14.7,0,21.8,0
2004/12/2,19:30,7.1,0,55.6,0,23.3,0,35.9,0,20.3,0,12.7,0,22.5,0
2004/12/2,19:45,7.2,0,54.4,0,23.3,0,35,0,20.2,0,12.8,0,23.1,0
2004/12/2,20:00,7.2,0,54.5,0,23.3,0,37.9,0,20.2,0,12.9,0,23.2,0
2004/12/2,20:15,7,0,54,0,23.4,0,39.3,0,20.2,0,13.1,0,23.1,0
2004/12/2,20:30,7.2,0,54.4,0,23.5,0,40.5,0,20.2,0,13.2,0,23.2,0
2004/12/2,20:45,7.1,0,55.9,0,23.5,0,40.7,0,20.2,0,13.3,0,22.8,0
2004/12/2,21:00,6.9,0,53.9,0,23.6,0,40.4,0,20.3,0,13.5,0,22.5,0
2004/12/2,21:15,6.8,0,54,0,23.4,0,35.4,0,20.2,0,13.2,0,22.2,0
2004/12/2,21:30,6.7,0,54.8,0,23.3,0,38.6,0,20.2,0,13.3,0,21.9,0
2004/12/2,21:45,6.5,0,58.2,0,23.3,0,38.6,0,20.1,0,12.7,0,22.3,0
2004/12/2,22:00,6.9,0,56,0,23.3,0,39.3,0,20.1,0,12.8,0,22.7,0
2004/12/2,22:15,6.9,0,54.7,0,23.3,0,41.2,0,20.1,0,12.9,0,22.9,0
2004/12/2,22:30,6.9,0,55.2,0,23.3,0,44.8,0,20.1,0,12.8,0,23.5,0
2004/12/2,22:45,7.2,0,53.6,0,23.4,0,44.7,0,20.1,0,12.6,0,23.2,0
2004/12/2,23:00,7,0,53.7,0,23.3,0,44,0,20.1,0,12.7,0,22.8,0
2004/12/2,23:15,7.2,0,54.6,0,23.3,0,44.2,0,20.1,0,12.9,0,22.7,0
2004/12/2,23:30,7,0,53.1,0,23.3,0,43.9,0,20.1,0,13,0,22.4,0
2004/12/2,23:45,6.8,0,55.1,0,23.3,0,43.9,0,20,0,13.1,0,22.1,0
2004/12/3,0:00,7.1,0,56.2,0,23.2,0,43.9,0,19.9,0,13.3,0,21.9,0
2004/12/3,0:15,7.1,0,55.3,0,23.2,0,43.9,0,19.8,0,13.4,0,21.6,0
2004/12/3,0:30,6.6,0,59.2,0,23.2,0,43.6,0,19.6,0,13.6,0,21.4,0
2004/12/3,0:45,6.5,0,59.4,0,23.1,0,43.7,0,19.5,0,13.7,0,21.3,0
2004/12/3,1:00,6.2,0,61.5,0,23.1,0,43.5,0,19.4,0,13.9,0,21.2,0
2004/12/3,1:15,6.2,0,62.2,0,23.1,0,43.4,0,19.3,0,14,0,21.1,0
2004/12/3,1:30,5.9,0,62.7,0,23.1,0,43.6,0,19.2,0,14.1,0,21,0
2004/12/3,1:45,5.6,0,63.6,0,23,0,43.5,0,19.1,0,14.3,0,20.9,0
2004/12/3,2:00,5.4,0,65.3,0,23,0,43.2,0,19.1,0,14.4,0,20.8,0
2004/12/3,2:15,5.4,0,65.2,0,23.1,0,42.9,0,19,0,14.5,0,20.8,0
2004/12/3,2:30,4.6,0,69.6,0,23.1,0,42.8,0,19,0,14.7,0,20.8,0
2004/12/3,2:45,3.6,0,74.5,0,23.1,0,42.2,0,18.9,0,14.8,0,20.8,0
2004/12/3,3:00,3.4,0,74.5,0,23.1,0,41.9,0,18.8,0,14.9,0,20.9,0
2004/12/3,3:15,2.6,0,77,0,23.2,0,41.5,0,18.8,0,15,0,20.9,0
2004/12/3,3:30,2.2,0,79,0,23.2,0,41.1,0,18.7,0,15.2,0,20.9,0
2004/12/3,3:45,2.1,0,80.8,0,23.2,0,40.4,0,18.6,0,15.3,0,20.9,0
2004/12/3,4:00,2,0,80.9,0,23.2,0,39.9,0,18.6,0,15.5,0,20.9,0
2004/12/3,4:15,1.6,0,83.8,0,23.3,0,39.6,0,18.5,0,15.6,0,20.9,0
2004/12/3,4:30,2,0,84.3,0,23.3,0,39.4,0,18.4,0,15.7,0,20.9,0
2004/12/3,4:45,2.3,0,81.7,0,23.3,0,38.8,0,18.3,0,15.8,0,20.9,0
2004/12/3,5:00,2.2,0,82.2,0,23.3,0,38.4,0,18.3,0,16,0,20.9,0
2004/12/3,5:15,1.8,0,82.1,0,23.3,0,38,0,18.2,0,16.1,0,20.9,0
2004/12/3,5:30,1.3,0,83.4,0,23.3,0,38.1,0,18.1,0,16.2,0,20.9,0
2004/12/3,5:45,1.2,0,83.5,0,23.2,0,37.4,0,18,0,16.3,0,20.9,0
2004/12/3,6:00,1,0,84,0,23.2,0,37.1,0,18,0,16.4,0,20.9,0
2004/12/3,6:15,1,0,84.4,0,23.2,0,37.4,0,17.9,0,16.5,0,20.9,0
2004/12/3,6:30,0.8,0,84.6,0,23.2,0,36.9,0,17.8,0,14.9,0,20.9,0
2004/12/3,6:45,0.6,0,85.8,0,23.3,0,38,0,17.8,0,14.9,0,21.3,0
2004/12/3,7:00,0.8,0,85.6,0,23.4,0,39,0,17.7,0,13.6,0,22.4,0
2004/12/3,7:15,1.1,0,85.1,0,23.4,0,38.7,0,17.7,0,12.5,0,22.6,0
2004/12/3,7:30,1.3,0,85,0,23.6,0,39.9,0,17.7,0,12.6,0,23.1,0
2004/12/3,7:45,1.6,0,85.9,0,23.9,0,40.8,0,17.8,0,12.7,0,23.2,0
2004/12/3,8:00,2.4,0,84.2,0,24,0,40.4,0,18.3,0,12.8,0,22.6,0
2004/12/3,8:15,3,0,82.4,0,23.9,0,40.4,0,18.4,0,12.5,0,22.2,0
2004/12/3,8:30,3.4,0,81.2,0,24.2,0,41.1,0,18.6,0,12.6,0,22.1,0
2004/12/3,8:45,3.9,0,80.3,0,24.6,0,41.6,0,18.8,0,12.7,0,22.3,0
2004/12/3,9:00,4.9,0,76.2,0,25.1,0,41.8,0,19.1,0,12.8,0,22.6,0
2004/12/3,9:15,6.6,0,70.3,0,25.6,0,41.9,0,19.5,0,12.9,0,23,0
2004/12/3,9:30,7.3,0,68.6,0,26.2,0,41.9,0,19.9,0,13,0,23.4,0
2004/12/3,9:45,7.4,0,68.5,0,26.3,0,42.4,0,20.2,0,13.2,0,23.6,0
2004/12/3,10:00,8.5,0,65.1,0,26.8,0,41.8,0,20.5,0,13.3,0,23.9,0
2004/12/3,10:15,10.3,0,58.6,0,27.2,0,41.9,0,21,0,13.5,0,24.3,0
2004/12/3,10:30,11.3,0,55.1,0,27.6,0,42.2,0,21.6,0,13.6,0,24.6,0
2004/12/3,10:45,11.1,0,57.1,0,27.9,0,41.7,0,22.1,0,13.8,0,24.9,0
2004/12/3,11:00,11.2,0,57,0,28.2,0,41.4,0,22.6,0,13.9,0,25.2,0
2004/12/3,11:15,11.6,0,56.6,0,28.4,0,41,0,23,0,14,0,25.4,0
2004/12/3,11:30,11.4,0,58,0,28.6,0,40.5,0,23.4,0,14.2,0,25.7,0
2004/12/3,11:45,11.8,0,57.5,0,28.7,0,40.3,0,23.7,0,14.3,0,25.9,0
2004/12/3,12:00,11.9,0,57.7,0,28.9,0,39.9,0,24,0,14.5,0,26,0
2004/12/3,12:15,11.2,0,60.3,0,28.8,0,40,0,24.1,0,14.6,0,26,0
2004/12/3,12:30,11,0,61.4,0,28.6,0,39.6,0,23.9,0,14.7,0,26,0
2004/12/3,12:45,11.2,0,61,0,28.6,0,39.3,0,23.9,0,14.8,0,26,0
2004/12/3,13:00,11.2,0,61.5,0,28.5,0,38.9,0,23.8,0,14.9,0,25.9,0
2004/12/3,13:15,11.4,0,60.7,0,28.5,0,38.9,0,23.8,0,15.1,0,25.8,0
2004/12/3,13:30,11.4,0,60.5,0,28.4,0,38.4,0,23.7,0,15.2,0,25.8,0
2004/12/3,13:45,12.1,0,56.9,0,28.4,0,38.2,0,23.7,0,15.4,0,25.8,0
2004/12/3,14:00,11.5,0,58.1,0,28.5,0,37.6,0,24.1,0,15.5,0,25.9,0
2004/12/3,14:15,11.3,0,59.1,0,28.5,0,37.8,0,24.1,0,15.6,0,26,0
2004/12/3,14:30,11.1,0,59.6,0,28.5,0,37.4,0,24.1,0,15.8,0,26,0
2004/12/3,14:45,11.4,0,58.3,0,28.5,0,37.4,0,24.1,0,15.9,0,26,0
2004/12/3,15:00,11.1,0,59.3,0,28.6,0,37.2,0,24.3,0,16,0,26,0
2004/12/3,15:15,10.6,0,60.8,0,28.6,0,37,0,24.3,0,16.1,0,26,0
2004/12/3,15:30,10.4,0,61.1,0,28.4,0,35.5,0,24.2,0,14.4,0,26,0
2004/12/3,15:45,10,0,62.2,0,28.3,0,36.7,0,24,0,14.3,0,25.9,0
2004/12/3,16:00,9.8,0,63.7,0,28.2,0,37.1,0,23.9,0,14.4,0,25.9,0
2004/12/3,16:15,9.5,0,64.7,0,28,0,35.9,0,23.7,0,14.5,0,25.8,0
2004/12/3,16:30,9.4,0,65.2,0,28,0,35.7,0,23.5,0,14.6,0,25.8,0
2004/12/3,16:45,9.2,0,66.4,0,27.8,0,35.2,0,23.3,0,14.7,0,25.6,0
2004/12/3,17:00,9.1,0,67,0,27.7,0,35.5,0,23.2,0,14.8,0,25.5,0
2004/12/3,17:15,9.1,0,67.2,0,27.5,0,34.6,0,23,0,14.9,0,25.4,0
2004/12/3,17:30,9.2,0,67.3,0,27.3,0,34.6,0,22.9,0,15.1,0,25.2,0
2004/12/3,17:45,8.7,0,70.4,0,27.1,0,34.5,0,22.7,0,15.2,0,25,0
2004/12/3,18:00,8.3,0,72.4,0,26.9,0,34.4,0,22.6,0,15.4,0,24.8,0
2004/12/3,18:15,8.4,0,72.9,0,26.7,0,34.9,0,22.5,0,15.5,0,24.8,0
2004/12/3,18:30,8.7,0,72.2,0,26.6,0,34.9,0,22.3,0,15.7,0,25.3,0
2004/12/3,18:45,8.5,0,73.4,0,26.4,0,35.5,0,22.2,0,14.3,0,25.5,0
2004/12/3,19:00,8,0,75.8,0,26.4,0,35.1,0,22,0,13.9,0,25.7,0
2004/12/3,19:15,8.1,0,76.3,0,26.4,0,35.1,0,21.9,0,14,0,26.3,0
2004/12/3,19:30,8.8,0,74.2,0,26.4,0,35.2,0,21.7,0,14.1,0,26,0
2004/12/3,19:45,8.9,0,74.1,0,26.2,0,34.9,0,21.6,0,14.2,0,25.8,0
2004/12/3,20:00,8.4,0,76.4,0,26.1,0,35.5,0,21.4,0,14.3,0,25.4,0
2004/12/3,20:15,10.4,0,72.4,0,26.1,0,37.1,0,21.3,0,14.4,0,25.3,0
2004/12/3,20:30,11,0,69.2,0,26.1,0,38.9,0,21.1,0,14.5,0,25.5,0
2004/12/3,20:45,11,0,69.9,0,26.1,0,39.3,0,21,0,14.7,0,25.6,0
2004/12/3,21:00,11.2,0,68.1,0,26.2,0,40.6,0,20.9,0,14.8,0,25.5,0
2004/12/3,21:15,11.3,0,67,0,25.8,0,37.6,0,20.9,0,13.6,0,25.3,0
2004/12/3,21:30,11.3,0,66.8,0,25.8,0,39.3,0,20.8,0,13.6,0,25.1,0
2004/12/3,21:45,11.3,0,66.6,0,25.5,0,39,0,20.7,0,13.7,0,24.8,0
2004/12/3,22:00,11.5,0,63.5,0,25.4,0,41,0,20.9,0,11.8,0,24.5,0
2004/12/3,22:15,11.6,0,65.3,0,25.2,0,40.9,0,21,0,11.9,0,24.2,0
2004/12/3,22:30,11.7,0,67.2,0,25.1,0,41.6,0,21.1,0,12.1,0,24.1,0
2004/12/3,22:45,11.9,0,68,0,25.1,0,42.4,0,21.3,0,12.8,0,24,0
2004/12/3,23:00,12,0,69.1,0,25.1,0,42.3,0,21.5,0,12.8,0,23.8,0
2004/12/3,23:15,12.1,0,69.5,0,25,0,44.7,0,21.6,0,12.9,0,23.7,0
2004/12/3,23:30,12.2,0,69.7,0,24.9,0,45.6,0,21.7,0,13.1,0,23.5,0
2004/12/3,23:45,12,0,71.4,0,24.9,0,45.7,0,21.7,0,13.2,0,23.4,0
2004/12/4,0:00,12,0,72.4,0,24.9,0,46,0,21.6,0,13.4,0,23.4,0
2004/12/4,0:15,12,0,70.9,0,24.9,0,45.5,0,21.6,0,13.5,0,23.3,0
2004/12/4,0:30,11.8,0,70.7,0,24.9,0,45,0,21.5,0,13.7,0,23.3,0
2004/12/4,0:45,11.8,0,70.5,0,24.9,0,44.7,0,21.4,0,13.9,0,23.2,0
2004/12/4,1:00,11.9,0,70.1,0,24.9,0,44.6,0,21.3,0,14.1,0,23.2,0
2004/12/4,1:15,12,0,69.7,0,24.9,0,44.5,0,21.3,0,14.2,0,23.2,0
2004/12/4,1:30,11.5,0,71,0,25,0,44.2,0,21.3,0,14.4,0,23.2,0
2004/12/4,1:45,11.2,0,72.6,0,25,0,43.7,0,21.3,0,14.5,0,23.2,0
2004/12/4,2:00,11.4,0,72.6,0,25,0,43.6,0,21.3,0,14.7,0,23.2,0
2004/12/4,2:15,11.8,0,71.3,0,25.1,0,43.2,0,21.2,0,14.8,0,23.2,0
2004/12/4,2:30,12.4,0,70.1,0,25.1,0,42.7,0,21.2,0,15,0,23.2,0
2004/12/4,2:45,12.8,0,69.6,0,25.2,0,42.6,0,21.2,0,15.2,0,23.3,0
2004/12/4,3:00,13,0,68.1,0,25.3,0,42.5,0,21.2,0,15.3,0,23.3,0
2004/12/4,3:15,13.2,0,67,0,25.4,0,42.3,0,21.2,0,15.5,0,23.4,0
2004/12/4,3:30,13.2,0,66.8,0,25.5,0,42,0,21.2,0,14.1,0,23.4,0
2004/12/4,3:45,13.2,0,67.6,0,25.5,0,41.7,0,21.2,0,13.8,0,23.5,0
2004/12/4,4:00,13.2,0,69,0,25.6,0,41.6,0,21.2,0,13.8,0,23.5,0
2004/12/4,4:15,13.3,0,69.4,0,25.6,0,41.5,0,21.2,0,13.9,0,23.5,0
2004/12/4,4:30,13.2,0,69.7,0,25.7,0,41.1,0,21.2,0,14.1,0,23.6,0
2004/12/4,4:45,13.1,0,70.2,0,25.7,0,40.9,0,21.2,0,14.2,0,23.6,0
2004/12/4,5:00,13.2,0,71.3,0,25.8,0,40.8,0,21.2,0,14.3,0,23.7,0
2004/12/4,5:15,13.2,0,71.2,0,25.8,0,40.9,0,21.2,0,14.5,0,23.7,0
2004/12/4,5:30,13.2,0,71.2,0,25.8,0,40.4,0,21.2,0,14.6,0,23.7,0
2004/12/4,5:45,13.4,0,71.3,0,25.9,0,40.5,0,21.2,0,14.4,0,23.7,0
2004/12/4,6:00,13.4,0,71,0,25.9,0,40.4,0,21.2,0,14.5,0,23.8,0
2004/12/4,6:15,13.2,0,71.8,0,26,0,41.1,0,21.3,0,14.6,0,24,0
2004/12/4,6:30,13.5,0,71.8,0,26.1,0,41.2,0,21.3,0,13.4,0,24,0
2004/12/4,6:45,13.5,0,72.2,0,26.1,0,41.9,0,21.2,0,13.5,0,24.1,0
2004/12/4,7:00,13.5,0,72.6,0,26.3,0,43.6,0,21.2,0,13.6,0,24.2,0
2004/12/4,7:15,13.4,0,74.2,0,26.3,0,44,0,21.1,0,12.8,0,24.8,0
2004/12/4,7:30,13.5,0,73.8,0,26.4,0,46.8,0,21.1,0,12.8,0,25.5,0
2004/12/4,7:45,13.6,0,73.6,0,26.3,0,47,0,21.1,0,13,0,25.6,0
2004/12/4,8:00,13.9,0,71.9,0,26.2,0,46.8,0,21.1,0,13.2,0,25.3,0
2004/12/4,8:15,14.4,0,70.4,0,26.1,0,45.4,0,21.4,0,13.3,0,24.9,0
2004/12/4,8:30,14.9,0,69,0,26.2,0,45.6,0,21.5,0,13.5,0,24.9,0
2004/12/4,8:45,14.9,0,69,0,26.3,0,45.6,0,21.7,0,13.7,0,24.8,0
2004/12/4,9:00,14.9,0,69.1,0,26.3,0,45.2,0,21.7,0,13.8,0,24.6,0
2004/12/4,9:15,15,0,69.6,0,26.3,0,45,0,21.7,0,14,0,24.5,0
2004/12/4,9:30,15.1,0,69.3,0,26.3,0,44.9,0,21.8,0,14.2,0,24.5,0
2004/12/4,9:45,15.2,0,68.5,0,26.4,0,44.6,0,21.9,0,14.4,0,24.4,0
2004/12/4,10:00,15.4,0,67.4,0,26.4,0,44.4,0,21.9,0,14.5,0,24.4,0
2004/12/4,10:15,16.1,0,64.4,0,26.5,0,44.1,0,22,0,14.7,0,24.4,0
2004/12/4,10:30,16.1,0,62.8,0,26.6,0,44,0,22.1,0,14.9,0,24.5,0
2004/12/4,10:45,16.3,0,62.7,0,26.6,0,43.8,0,22.3,0,15.1,0,24.5,0
2004/12/4,11:00,16,0,64.5,0,26.6,0,43.5,0,22.3,0,15.3,0,24.5,0
2004/12/4,11:15,16.1,0,64.8,0,26.6,0,43.3,0,22.4,0,15.5,0,24.5,0
2004/12/4,11:30,16.3,0,64.4,0,26.7,0,43.3,0,22.5,0,15.7,0,24.5,0
2004/12/4,11:45,16.6,0,62.9,0,26.8,0,43.1,0,22.5,0,15.9,0,24.6,0
2004/12/4,12:00,16.3,0,63.3,0,26.8,0,43,0,22.6,0,16,0,24.6,0
2004/12/4,12:15,16.4,0,63.2,0,26.8,0,42.8,0,22.7,0,16.2,0,24.6,0
2004/12/4,12:30,16.2,0,64.2,0,26.8,0,42.9,0,22.7,0,14.1,0,24.6,0
2004/12/4,12:45,15.9,0,65.1,0,26.8,0,45.2,0,22.7,0,12,0,25,0
2004/12/4,13:00,15.4,0,68.6,0,26.8,0,45.4,0,22.7,0,12.1,0,25.6,0
2004/12/4,13:15,15.6,0,68.3,0,26.9,0,46,0,22.7,0,12.3,0,25.7,0
2004/12/4,13:30,16,0,66.3,0,27,0,45.7,0,22.7,0,13.2,0,25.6,0
2004/12/4,13:45,15.9,0,67.1,0,27.1,0,45.3,0,22.7,0,13.3,0,25.5,0
2004/12/4,14:00,16.1,0,65.4,0,27.2,0,45,0,22.7,0,13.4,0,25.4,0
2004/12/4,14:15,16.2,0,64.1,0,27.3,0,44.2,0,22.8,0,13.6,0,25.4,0
2004/12/4,14:30,16.1,0,63.6,0,27.4,0,43.7,0,22.8,0,13.7,0,25.4,0
2004/12/4,14:45,16,0,63.4,0,27.5,0,43.5,0,22.8,0,13.9,0,25.4,0
2004/12/4,15:00,15.9,0,63.1,0,27.5,0,42.7,0,22.8,0,14.1,0,25.4,0
2004/12/4,15:15,15.7,0,63.7,0,27.4,0,42.6,0,22.7,0,14.2,0,25.3,0
2004/12/4,15:30,15.7,0,63.8,0,27.3,0,42.4,0,22.7,0,14.4,0,25.2,0
2004/12/4,15:45,15.5,0,64,0,27.2,0,42.2,0,22.7,0,14.6,0,25.2,0
2004/12/4,16:00,15.5,0,63.7,0,27.2,0,42.7,0,22.7,0,14.8,0,25.1,0
2004/12/4,16:15,15.1,0,65.5,0,27.2,0,42.9,0,22.6,0,14.8,0,25.2,0
2004/12/4,16:30,14.7,0,67.6,0,27.2,0,43.5,0,22.6,0,14.5,0,25.2,0
2004/12/4,16:45,14.5,0,68.2,0,27.1,0,42.1,0,22.6,0,14.6,0,25.2,0
2004/12/4,17:00,14.3,0,67.9,0,26.9,0,42.1,0,22.5,0,14.7,0,25.1,0
2004/12/4,17:15,13.8,0,70.1,0,26.9,0,41.8,0,22.5,0,14.9,0,25,0
2004/12/4,17:30,12.8,0,76,0,26.8,0,42.5,0,22.5,0,15,0,25,0
2004/12/4,17:45,12.8,0,76.5,0,26.8,0,43.9,0,22.5,0,15.2,0,25,0
2004/12/4,18:00,12.7,0,77,0,26.8,0,44.6,0,22.5,0,15.4,0,25.7,0
2004/12/4,18:15,12.5,0,78.1,0,26.8,0,44.9,0,22.4,0,15.6,0,25.4,0
2004/12/4,18:30,12.1,0,80.7,0,26.8,0,43.7,0,22.4,0,13.2,0,26.4,0
2004/12/4,18:45,11.7,0,82.6,0,26.8,0,43.3,0,22.3,0,13.3,0,27.1,0
2004/12/4,19:00,11.7,0,82.3,0,26.9,0,43.9,0,22.2,0,13.5,0,27.2,0
2004/12/4,19:15,12.4,0,79.1,0,26.9,0,45.6,0,22.2,0,13.6,0,27.5,0
2004/12/4,19:30,12.4,0,79.2,0,27.1,0,47.2,0,22.1,0,13.6,0,28.1,0
2004/12/4,19:45,12.2,0,79.3,0,27.3,0,49.3,0,22.1,0,13.6,0,28.7,0
2004/12/4,20:00,12.3,0,78.2,0,27.4,0,51.3,0,22,0,13.7,0,28.4,0
2004/12/4,20:15,12.4,0,77.9,0,27.5,0,52.4,0,22,0,13.8,0,28,0
2004/12/4,20:30,12.2,0,79.3,0,27.6,0,53.5,0,22,0,13.7,0,27.7,0
2004/12/4,20:45,11.8,0,81.3,0,27.6,0,50.5,0,22,0,13.8,0,27.4,0
2004/12/4,21:00,12.1,0,79.2,0,27.6,0,51,0,22,0,13.7,0,27,0
2004/12/4,21:15,11.9,0,81,0,27.7,0,50.5,0,22,0,12.5,0,26.8,0
2004/12/4,21:30,11.7,0,82.3,0,27.6,0,49.4,0,22,0,12.5,0,26.6,0